Location: *
(51.8167°N, 12.5000°E)
Time: 10:47:27
(UTC+00:00)

Cosmos 1674 - Pass Details

Date: 16 September 2019
Orbit: 495 x 519 km, 82.5° (Epoch: 21 October)

Event Time Altitude Azimuth Distance (km) Brightness Sun altitude
Rises 20:26:23 0° 341° (NNW) 2,606 7.3 -26.2°
Reaches altitude 10° 20:28:40 10° 330° (NNW) 1,714 6.3 -26.4°
Enters shadow 20:31:48 30° 274° (W) 928 4.3 -26.8°
